Regional Weather Roundup
Issued by NWS

Home | Current Version | Previous Version | Graphics & Text | Print | Product List | Glossary On
Versions: 1 2 3 4 5 6 7 8 9 10 11 12 13 14 15 16 17 18 19 20 21 22 23 24 25 26 27 28 29 30 31 32 33 34 35 36 37 38 39 40 41 42 43 44 45 46 47 48 49 50
000
ASUS43 KIND 232109
RWRIN

WEATHER ROUNDUP FOR INDIANA
NATIONAL WEATHER SERVICE INDIANAPOLIS IN
500 PM EDT MON MAY 23 2016

NOTE: "FAIR" INDICATES FEW OR NO CLOUDS BELOW 12,000 FEET WITH NO
SIGNIFICANT WEATHER AND/OR OBSTRUCTIONS TO VISIBILITY.

* - STATION DOES NOT REPORT WEATHER SUCH AS PRECIPITATION OR FOG.

+ - STATION NOT QUALITY CONTROLLED BY THE NATIONAL WEATHER SERVICE.
    USE DATA WITH CAUTION...ESPECIALLY DEWPOINT AND RELATIVE
    HUMIDITY OBSERVATIONS.

INZ001>003-010>013-019-020-232200-
NORTHWEST INDIANA

CITY           SKY/WX    TMP DP  RH WIND       PRES   REMARKS
GARY /AIRPORT/ MOSUNNY   79  54  41 E8        29.96F
KNOX *+        SUNNY     79  16   9 S8        29.97F
LA PORTE +     SUNNY     82  30  15 SE9       29.98F
MICHIGAN CITY+ SUNNY     79  41  25 S6        29.97F
MONTICELLO +   SUNNY     80  12   7 S6        29.97F
RENSSELAER +   SUNNY     81  28  15 E9        29.97F
VALPARAISO     SUNNY     80  36  20 SE6       29.96F

$$

LMZ046-743>745-232200-
SOUTHERN LAKE MICHIGAN

STATION/POSITION TIME  TEMP    WIND        PRES    WAVE
                       AIR SEA DIR/SP/G            HT
                 (UTC) (F)     (DEG/KT/KT) (MB)    (FT)
BURNS HARBOR     2000   69     350/  4/  8 1015.6
MICHIGAN CITY    2000   69     350/  9/ 11   N/A
5NW MICH CITY    2100   62 60   20/  6/  8   N/A     0

$$

INZ004-005-014>016-021>024-232200-
NORTH CENTRAL INDIANA

CITY           SKY/WX    TMP DP  RH WIND       PRES   REMARKS
ELKHART        SUNNY     77  43  29 S8        29.99F
GOSHEN         SUNNY     78  33  19 S10       29.99F
LOGANSPORT +   SUNNY     79  34  19 SE8       29.99F
PERU/GRISSOM   SUNNY     77  33  20 E10       29.98F
ROCHESTER +    SUNNY     81  36  19 S7        30.00S
SOUTH BEND     SUNNY     78  34  20 S8        29.98F
WARSAW +       SUNNY     77  32  19 CALM      30.00F

$$

INZ006>009-017-018-025>027-232200-
NORTHEAST INDIANA

CITY           SKY/WX    TMP DP  RH WIND       PRES   REMARKS
ANGOLA *+      SUNNY     75  34  22 VRB3      30.01F
AUBURN +       SUNNY     75  28  17 CALM      30.02F
FORT WAYNE     SUNNY     77  32  19 VRB3      30.01F
HUNTINGTON +   SUNNY    N/A N/A N/A CALM      30.00F

$$

INZ028-029-035-036-043>045-051>053-232200-
WEST CENTRAL INDIANA

CITY           SKY/WX    TMP DP  RH WIND       PRES   REMARKS
CRAWFORDSVL +  SUNNY     77  42  28 SE7       29.99F
GREENCASTLE +  SUNNY     77  50  38 S8        30.00F
LAFAYETTE      SUNNY     78  39  24 SE7       29.97F
TERRE HAUTE    SUNNY     80  42  25 SE8       29.98F

$$

INZ030>032-037>040-046>048-054>057-064-065-232200-
CENTRAL INDIANA

CITY           SKY/WX    TMP DP  RH WIND       PRES   REMARKS
CP ATTERBURY + SUNNY     77  39  25 NE5       30.00S
COLUMBUS       SUNNY     77  37  24 E6        30.00F
FISHERS *+     SUNNY     77  45  31 CALM      30.00
FRANKFORT +      N/A    N/A N/A N/A CALM      30.01S
GREENWOOD *+   SUNNY     77  34  20 CALM      30.01S
INDIANAPOLIS   SUNNY     77  37  23 VRB6      29.99S
-EAGLE CREEK   SUNNY     78  36  21 VRB7      29.99F
KOKOMO *+      SUNNY     75  37  25 SE6       29.99F
MARION +       SUNNY     76  32  20 SE5       30.00F HAZE
SHELBYVILLE    SUNNY     79  35  20 E5        29.99F
ZIONSVILLE +   SUNNY     76  36  23 S5        30.00F

$$

INZ033-034-041-042-049-050-058-059-232200-
EAST CENTRAL INDIANA

CITY           SKY/WX    TMP DP  RH WIND       PRES   REMARKS
MUNCIE         SUNNY     78  34  20 CALM      30.00F HAZE

$$

INZ060-061-067>069-081>083-085>088-232200-
SOUTHWEST INDIANA

CITY           SKY/WX    TMP DP  RH WIND       PRES   REMARKS
EVANSVILLE       N/A    N/A N/A N/A MISG      29.98F
HUNTINGBURG *+ SUNNY     81  43  26 CALM      29.99F
WASHINGTON +   SUNNY     80  45  29 S3        29.98F

$$

INZ062-063-066-070>080-084-089>092-232200-
SOUTH CENTRAL AND SOUTHEAST INDIANA

CITY           SKY/WX    TMP DP  RH WIND       PRES   REMARKS
BLOOMINGTON    SUNNY     78  38  23 SE5       29.99F
MADISON *+     SUNNY     77  39  25 SE7       30.02S
NORTH VERNON + SUNNY     79  50  36 CALM      30.00F
SEYMOUR +      SUNNY     79  45  29 CALM      29.99F

$$




USA.gov is the U.S. government's official web portal to all federal, state and local government web resources and services.